GW1158 Weather Reports


Display with metric or nautical units.
time (UTC)temp
F
wind
direction
speed
MPH
gust
MPH
rain 1hr
in
rain 24hr
in
rain mn
in
humidity
%
barometer
mb
20260505102033 38 0 0.0 1.0 0.00 0.03 0.03 92 1012.1
20260505101543 38 0 0.0 0.0 0.00 0.03 0.03 92 1012.1
20260505101036 38 0 0.0 0.0 0.00 0.03 0.03 91 1012.2
20260505100536 38 0 0.0 0.0 0.00 0.03 0.03 91 1012.1
20260505100045 38 0 0.0 1.0 0.00 0.03 0.03 91 1012.1
20260505095533 38 0 0.0 2.0 0.00 0.03 0.03 90 1012.1
20260505095033 39 0 0.0 2.0 0.00 0.03 0.03 89 1012.0
20260505094545 39 212 1.0 2.0 0.00 0.03 0.03 89 1012.2
20260505094034 38 241 0.0 1.0 0.00 0.03 0.03 89 1012.2
20260505093532 38 241 0.0 1.0 0.00 0.03 0.03 89 1012.2
20260505093050 38 241 1.0 1.0 0.01 0.03 0.03 88 1012.2
20260505092534 38 221 1.0 2.0 0.01 0.03 0.03 89 1012.3
20260505092034 38 242 1.0 2.0 0.01 0.03 0.03 90 1012.3
20260505091543 38 234 1.0 1.0 0.01 0.03 0.03 90 1012.3
20260505091029 38 244 0.0 1.0 0.01 0.03 0.03 91 1012.4
20260505090532 38 0 0.0 1.0 0.01 0.03 0.03 90 1012.4
20260505090045 38 244 0.0 1.0 0.02 0.03 0.03 90 1012.3
20260505085532 38 242 0.0 1.0 0.02 0.03 0.03 90 1012.4
20260505085036 38 0 0.0 0.0 0.02 0.03 0.03 89 1012.5
20260505084547 38 0 0.0 1.0 0.02 0.03 0.03 88 1012.6
20260505084034 38 0 0.0 1.0 0.02 0.03 0.03 88 1012.6
20260505083532 38 19 0.0 1.0 0.02 0.03 0.03 89 1012.8
20260505083051 38 0 0.0 4.0 0.01 0.02 0.02 88 1012.9
20260505082533 38 0 1.0 4.0 0.01 0.02 0.02 87 1012.9
20260505082033 38 14 1.0 4.0 0.01 0.02 0.02 87 1012.9
20260505081551 39 36 1.0 3.0 0.01 0.02 0.02 87 1013.0
20260505081033 39 72 0.0 3.0 0.01 0.02 0.02 87 1013.2
20260505080530 39 0 1.0 3.0 0.01 0.02 0.02 86 1013.2
20260505080047 39 70 1.0 2.0 0.00 0.01 0.01 87 1013.3
20260505075532 39 67 1.0 2.0 0.01 0.01 0.01 87 1013.3
20260505075033 39 40 0.0 2.0 0.01 0.01 0.01 88 1013.4
20260505074545 39 77 0.0 1.0 0.01 0.01 0.01 88 1013.5
20260505074034 39 0 0.0 0.0 0.01 0.01 0.01 87 1013.4
20260505073532 39 0 0.0 0.0 0.01 0.01 0.01 87 1013.5
20260505073043 39 0 0.0 1.0 0.01 0.01 0.01 84 1013.5
20260505072536 39 0 0.0 1.0 0.01 0.01 0.01 84 1013.6
20260505072034 40 99 0.0 4.0 0.01 0.01 0.01 83 1013.6
20260505071541 40 102 0.0 6.0 0.01 0.01 0.01 82 1013.5
20260505071034 40 210 2.0 6.0 0.01 0.01 0.01 79 1013.5
20260505070534 41 113 0.0 9.0 0.01 0.01 0.01 80 1013.6
20260505070045 42 215 3.0 9.0 0.01 0.01 0.01 73 1013.5
20260505065535 43 127 1.0 5.0 0.00 0.00 0.00 72 1013.5
20260505065032 44 11 2.0 6.0 0.00 0.00 0.00 64 1013.3
20260505064540 44 264 1.0 8.0 0.00 0.00 0.00 57 1013.1
20260505064032 44 329 2.0 8.0 0.00 0.00 0.00 59 1013.1
20260505063533 45 39 0.0 3.0 0.00 0.00 0.00 56 1012.9
20260505063045 44 0 1.0 3.0 0.00 0.00 0.00 55 1012.9
20260505062532 44 238 0.0 3.0 0.00 0.00 0.00 57 1012.7
20260505062034 45 270 1.0 3.0 0.00 0.00 0.00 56 1012.6
20260505061542 45 239 0.0 1.0 0.00 0.00 0.00 56 1012.5
20260505061033 45 240 0.0 0.0 0.00 0.00 0.00 57 1012.4
20260505060533 45 0 0.0 1.0 0.00 0.00 0.00 57 1012.3
20260505060044 45 0 0.0 2.0 0.00 0.00 0.00 58 1012.2
20260505055533 45 240 0.0 2.0 0.00 0.00 0.00 58 1012.3
20260505055033 45 237 0.0 0.0 0.00 0.00 0.00 58 1012.2
20260505054549 45 0 0.0 3.0 0.00 0.00 0.00 57 1012.2
20260505054036 45 0 0.0 4.0 0.00 0.00 0.00 57 1012.1
20260505053533 46 0 1.0 4.0 0.00 0.00 0.00 55 1012.1
20260505053110 46 0 0.0 1.0 0.00 0.00 0.00 54 1012.0
20260505052532 46 0 0.0 1.0 0.00 0.00 0.00 54 1012.1
20260505052036 46 0 0.0 0.0 0.00 0.00 0.00 52 1012.1
20260505051543 47 0 0.0 1.0 0.00 0.00 0.00 51 1012.1
20260505051032 47 0 0.0 2.0 0.00 0.00 0.00 50 1011.9
20260505050532 47 0 0.0 5.0 0.00 0.00 0.00 49 1011.8
20260505041545 48 34 3.0 8.0 0.00 0.00 0.00 50 1011.3
20260505041035 48 155 3.0 11.0 0.00 0.00 0.00 50 1011.2
20260505040533 48 56 5.0 12.0 0.00 0.00 0.00 49 1011.2
20260505040049 47 108 4.0 12.0 0.00 0.00 0.00 49 1011.2
20260505035535 47 44 4.0 12.0 0.00 0.00 0.00 50 1011.1
20260505035032 48 75 5.0 13.0 0.00 0.00 0.00 50 1011.0
20260505034601 48 93 3.0 13.0 0.00 0.00 0.00 50 1011.0
20260505034036 48 58 4.0 10.0 0.00 0.00 0.00 50 1011.0
20260505033533 48 95 3.0 14.0 0.00 0.00 0.00 50 1010.9
20260505033050 48 22 3.0 14.0 0.00 0.00 0.00 50 1010.9
20260505032534 48 34 3.0 9.0 0.00 0.00 0.00 50 1010.9
20260505032033 49 21 3.0 11.0 0.00 0.00 0.00 50 1010.9
20260505031542 49 51 5.0 11.0 0.00 0.00 0.00 50 1010.9
20260505031037 49 30 7.0 12.0 0.00 0.00 0.00 49 1010.9
20260505030533 50 32 5.0 12.0 0.00 0.00 0.00 48 1010.9
20260505030043 50 25 2.0 9.0 0.00 0.00 0.00 46 1010.8
20260505025534 51 19 3.0 16.0 0.00 0.00 0.00 45 1010.7
20260505025033 51 84 5.0 16.0 0.00 0.00 0.00 43 1010.6
20260505024543 52 62 6.0 12.0 0.00 0.00 0.00 39 1010.4
20260505024033 52 14 6.0 12.0 0.00 0.00 0.00 38 1010.4
20260505023534 52 22 5.0 12.0 0.00 0.00 0.00 38 1010.4
20260505023047 52 32 3.0 8.0 0.00 0.00 0.00 38 1010.3
20260505022536 52 16 3.0 7.0 0.00 0.00 0.00 37 1010.3
20260505022033 52 18 3.0 9.0 0.00 0.00 0.00 38 1010.3
20260505021546 53 21 3.0 14.0 0.00 0.00 0.00 36 1010.2
20260505021034 54 62 5.0 14.0 0.00 0.00 0.00 36 1010.2
20260505020532 54 34 8.0 13.0 0.00 0.00 0.00 35 1010.2
20260505020047 54 18 3.0 7.0 0.00 0.00 0.00 35 1010.0
20260505015533 55 22 3.0 7.0 0.00 0.00 0.00 34 1009.9
20260505015033 56 25 4.0 8.0 0.00 0.00 0.00 33 1010.0
20260505014543 56 58 3.0 8.0 0.00 0.00 0.00 33 1009.8
20260505014034 57 32 4.0 8.0 0.00 0.00 0.00 32 1009.8
20260505013536 57 27 4.0 7.0 0.00 0.00 0.00 32 1009.8
20260505013045 57 25 4.0 10.0 0.00 0.00 0.00 31 1009.8
20260505012533 57 16 5.0 10.0 0.00 0.00 0.00 31 1009.9
20260505012035 57 18 4.0 9.0 0.00 0.00 0.00 32 1009.9
20260505011604 57 46 3.0 9.0 0.00 0.00 0.00 31 1009.8
20260505011036 57 40 4.0 9.0 0.00 0.00 0.00 31 1009.9
20260505010534 58 39 5.0 8.0 0.00 0.00 0.00 30 1010.0
20260505010048 58 48 5.0 8.0 0.00 0.00 0.00 30 1010.1
20260505005533 58 28 3.0 7.0 0.00 0.00 0.00 30 1010.0
20260505005035 58 1 6.0 7.0 0.00 0.00 0.00 30 1010.1
20260505004540 58 29 3.0 15.0 0.00 0.00 0.00 29 1010.0
20260505004033 58 27 5.0 15.0 0.00 0.00 0.00 29 1010.0
20260505003533 58 28 8.0 15.0 0.00 0.00 0.00 29 1010.2
20260505003044 58 6 6.0 14.0 0.00 0.00 0.00 32 1010.2
20260505002532 57 241 3.0 9.0 0.00 0.00 0.00 32 1010.0
20260505002032 57 324 5.0 9.0 0.00 0.00 0.00 33 1010.3
20260505001547 57 17 3.0 11.0 0.00 0.00 0.00 32 1010.3
20260505001031 57 337 4.0 11.0 0.00 0.00 0.00 32 1010.3
20260505000533 57 82 7.0 14.0 0.00 0.00 0.00 33 1010.4
20260505000100 56 30 7.0 14.0 0.00 0.00 0.00 37 1010.5
20260504235534 56 29 8.0 15.0 0.00 0.00 0.00 38 1010.7
20260504235033 57 52 6.0 17.0 0.00 0.00 0.00 38 1010.8
20260504234543 57 2 8.0 19.0 0.00 0.00 0.00 36 1010.7
20260504234034 58 12 8.0 19.0 0.00 0.00 0.00 35 1011.0
20260504233534 60 36 7.0 14.0 0.00 0.00 0.00 33 1010.6
20260504233057 60 252 4.0 14.0 0.00 0.00 0.00 30 1010.1
20260504232534 60 129 4.0 14.0 0.00 0.00 0.00 30 1010.1
20260504232034 60 280 4.0 16.0 0.00 0.00 0.00 30 1010.1
20260504231546 61 296 5.0 16.0 0.00 0.00 0.00 30 1010.0
20260504231033 61 288 3.0 16.0 0.00 0.00 0.00 29 1009.9
20260504230533 61 282 3.0 13.0 0.00 0.00 0.00 29 1009.8
20260504230044 60 216 3.0 13.0 0.00 0.00 0.00 29 1009.7
20260504225532 60 263 3.0 12.0 0.00 0.00 0.00 28 1009.8
20260504225033 61 267 3.0 11.0 0.00 0.00 0.00 28 1009.8
20260504224548 60 338 3.0 11.0 0.00 0.00 0.00 29 1010.0
20260504224033 60 279 3.0 11.0 0.00 0.00 0.00 30 1010.0
20260504223533 58 297 3.0 10.0 0.00 0.00 0.00 31 1009.9
20260504223048 57 221 2.0 6.0 0.00 0.00 0.00 31 1010.0
20260504222535 57 237 1.0 15.0 0.00 0.00 0.00 30 1010.2
20260504222033 57 229 6.0 15.0 0.00 0.00 0.00 30 1010.3
20260504221548 58 292 5.0 15.0 0.00 0.00 0.00 28 1010.4
20260504221034 59 155 2.0 11.0 0.00 0.00 0.00 26 1009.8
20260504220533 59 267 1.0 12.0 0.00 0.00 0.00 26 1009.9
20260504220049 59 131 1.0 12.0 0.00 0.00 0.00 26 1009.9
20260504215534 60 141 6.0 12.0 0.00 0.00 0.00 25 1010.0
20260504215034 60 257 2.0 8.0 0.00 0.00 0.00 25 1010.3
20260504214547 61 335 2.0 7.0 0.00 0.00 0.00 25 1010.2
20260504214033 62 39 1.0 10.0 0.00 0.00 0.00 24 1010.2
20260504213533 62 358 3.0 10.0 0.00 0.00 0.00 23 1010.1
20260504213051 63 326 2.0 10.0 0.00 0.00 0.00 21 1010.3
20260504212533 63 356 3.0 10.0 0.00 0.00 0.00 21 1010.6
20260504212033 63 289 2.0 11.0 0.00 0.00 0.00 23 1010.5
20260504211546 63 243 3.0 11.0 0.00 0.00 0.00 23 1010.6
20260504211034 62 324 3.0 9.0 0.00 0.00 0.00 25 1010.7
20260504210534 62 311 2.0 11.0 0.00 0.00 0.00 25 1010.8
20260504210059 60 326 4.0 11.0 0.00 0.00 0.00 26 1010.8
20260504205534 60 332 3.0 9.0 0.00 0.00 0.00 26 1011.1
20260504205103 59 20 2.0 14.0 0.00 0.00 0.00 28 1011.4
20260504204543 58 260 3.0 19.0 0.00 0.00 0.00 26 1011.5
20260504204034 58 335 2.0 19.0 0.00 0.00 0.00 28 1011.5
20260504203535 58 288 5.0 19.0 0.00 0.00 0.00 28 1011.9
20260504203048 59 212 4.0 12.0 0.00 0.00 0.00 27 1011.6
20260504202535 60 287 1.0 9.0 0.00 0.00 0.00 27 1011.5
20260504202036 59 239 2.0 9.0 0.00 0.00 0.00 27 1011.4
20260504201545 58 188 2.0 7.0 0.00 0.00 0.00 30 1011.4
20260504201033 58 231 3.0 7.0 0.00 0.00 0.00 28 1011.4
20260504200533 59 239 1.0 5.0 0.00 0.00 0.00 29 1011.4
20260504200049 59 335 2.0 12.0 0.00 0.00 0.00 29 1011.6
20260504195532 59 252 3.0 12.0 0.00 0.00 0.00 29 1011.5
20260504195035 59 203 2.0 10.0 0.00 0.00 0.00 29 1011.6
20260504194548 59 189 1.0 10.0 0.00 0.00 0.00 28 1011.6
20260504194033 59 314 4.0 12.0 0.00 0.00 0.00 30 1011.7
20260504193535 58 351 2.0 12.0 0.00 0.00 0.00 29 1011.7
20260504193050 58 225 3.0 13.0 0.00 0.00 0.00 30 1011.7
20260504192535 59 265 5.0 15.0 0.00 0.00 0.00 28 1011.8
20260504192033 60 243 5.0 15.0 0.00 0.00 0.00 28 1011.9
20260504191607 60 263 2.0 9.0 0.00 0.00 0.00 29 1011.7
20260504191034 60 295 2.0 9.0 0.00 0.00 0.00 27 1011.7
20260504190533 60 311 3.0 11.0 0.00 0.00 0.00 28 1011.7
20260504190049 59 0 5.0 14.0 0.00 0.00 0.00 26 1011.9
20260504185534 62 121 6.0 14.0 0.00 0.00 0.00 25 1012.0
20260504185034 63 274 4.0 12.0 0.00 0.00 0.00 27 1011.9
20260504184543 61 38 4.0 12.0 0.00 0.00 0.00 28 1011.8
20260504184034 60 307 3.0 14.0 0.00 0.00 0.00 29 1011.9
20260504183536 58 258 3.0 14.0 0.00 0.00 0.00 29 1012.0
20260504183045 57 342 6.0 14.0 0.00 0.00 0.00 31 1012.2
20260504182533 57 32 2.0 10.0 0.00 0.00 0.00 32 1012.1
20260504182033 58 314 2.0 11.0 0.00 0.00 0.00 32 1012.1
20260504181546 59 302 4.0 16.0 0.00 0.00 0.00 27 1012.0
20260504181034 60 319 4.0 16.0 0.00 0.00 0.00 26 1011.9
20260504180534 60 300 4.0 9.0 0.00 0.00 0.00 27 1011.9
20260504180051 61 316 2.0 10.0 0.00 0.00 0.00 26 1011.8
20260504175536 61 285 3.0 10.0 0.00 0.00 0.00 24 1012.0
20260504175035 61 229 3.0 10.0 0.00 0.00 0.00 24 1012.0
20260504174550 62 343 2.0 5.0 0.00 0.00 0.00 25 1012.0
20260504174033 61 17 1.0 5.0 0.00 0.00 0.00 27 1012.1
20260504173532 62 193 1.0 10.0 0.00 0.00 0.00 24 1012.2
20260504173040 61 277 2.0 10.0 0.00 0.00 0.00 27 1012.3
20260504172533 61 352 2.0 10.0 0.00 0.00 0.00 26 1012.3
20260504172033 61 236 3.0 6.0 0.00 0.00 0.00 27 1012.4
20260504171549 60 9 1.0 9.0 0.00 0.00 0.00 27 1012.4
20260504171033 60 150 2.0 9.0 0.00 0.00 0.00 26 1012.5
20260504170533 60 347 2.0 7.0 0.00 0.00 0.00 28 1012.5
20260504151035 57 254 1.0 2.0 0.00 0.00 0.00 30 1013.0
20260504150533 57 255 0.0 2.0 0.00 0.00 0.00 30 1013.1
20260504141032 50 236 1.0 2.0 0.00 0.00 0.00 38 1013.4
20260504140533 50 246 0.0 1.0 0.00 0.00 0.00 37 1013.4
20260504130534 41 282 1.0 2.0 0.00 0.00 0.00 46 1013.5
20260504110533 40 0 0.0 2.0 0.00 0.00 0.00 43 1013.1